Location: Pedholt
(56.0260°N, 10.2097°E)
Time: 21:15:52
(UTC+00:00)

Tiros 1 - Pass Details

Date: 04 August 2021
Orbit: 630 x 663 km, 48.4° (Epoch: 19 September)

Event Time Altitude Azimuth Distance (km) Brightness Sun altitude
Rises 15:59:42 0° 203° (SSW) 2,983 11.0 26.0°
Reaches altitude 10° 16:03:00 10° 180° (S) 2,070 9.9 25.5°
Maximum altitude 16:05:34 15° 147° (SSE) 1,782 9.3 25.2°
Drops below altitude 10° 16:08:08 10° 114° (ESE) 2,066 9.3 24.8°
Sets 16:11:25 0° 91° (E) 2,973 10.0 24.4°
